Weather History for Fryeburg, ME

Change the Weather History Date:

Tuesday, November 9, 2010

  Actual Average Record
Temperature  
Mean Temperature 47 °F -  
Max Temperature 52 °F 45 °F 68 °F (2006)
Min Temperature 42 °F 25 °F 14 °F (2004)
Degree Days  
Heating Degree Days 18    
Moisture  
Dew Point 46 °F    
Average Humidity 93    
Maximum Humidity 100    
Minimum Humidity 83    
Precipitation  
Precipitation 0.11 in - - ()
Sea Level Pressure  
Sea Level Pressure 29.88 in    
Wind  
Wind Speed 3 mph (North)    
Max Wind Speed 8 mph    
Max Gust Speed 22 mph    
Visibility 8 miles    
Events Rain    
Averages and records for this station are not official NWS values.
T = Trace of Precipitation, MM = Missing Value Source: NWS Daily Summary

Daily Weather History Graph

Daily Weather History Graph

Search for Another Location

Airport:

Trip Planner

Search our weather history database for the weather conditions in past years. The results will help you decide how hot, cold, wet, or windy it might be!

Date:

Astronomy

Nov. 09, 2010 Rise Set
Actual Time 6:30 AM EST 4:23 PM EST
Civil Twilight 6:00 AM EST 4:54 PM EST
Nautical Twilight 5:25 AM EST 5:29 PM EST
Astronomical Twilight 4:51 AM EST 6:02 PM EST
Moon 10:13 AM EST (11/9) 7:14 PM EST (11/9)
Length of Visible Light 10h 54m
Length of Day
9h 53m
Waxing Crescent, 14% of the Moon is Illuminated
Nov 9
Waxing Crescent
Nov 13
First Quarter
Nov 21
Full
Nov 28
Last Quarter
Dec 5
New

Hourly Weather History & Observations

Time (EST) Temp. Windchill Dew Point Humidity Pressure Visibility Wind Dir Wind Speed Gust Speed Precip Events Conditions
12:05 AM 44.6 °F - 44.6 °F 100% 29.76 in 10.0 mi Calm Calm - N/A   Overcast
12:54 AM 45.0 °F - 44.1 °F 97% 29.77 in 10.0 mi Calm Calm - N/A   Overcast
1:54 AM 44.1 °F - 44.1 °F 100% 29.77 in 10.0 mi Calm Calm - N/A   Overcast
2:54 AM 42.1 °F - 42.1 °F 100% 29.79 in 9.0 mi Calm Calm - N/A   Mostly Cloudy
3:54 AM 44.1 °F 42.5 °F 42.1 °F 93% 29.81 in 10.0 mi North 3.5 mph - N/A   Overcast
4:54 AM 44.1 °F - 43.0 °F 96% 29.81 in 10.0 mi Calm Calm - N/A   Overcast
5:54 AM 45.0 °F - 43.0 °F 93% 29.83 in 10.0 mi Calm Calm - N/A   Overcast
6:54 AM 46.9 °F - 44.1 °F 90% 29.84 in 10.0 mi Calm Calm - N/A   Overcast
7:54 AM 48.9 °F - 44.1 °F 83% 29.86 in 10.0 mi North 8.1 mph - N/A   Overcast
8:54 AM 48.9 °F - 45.0 °F 86% 29.87 in 10.0 mi Variable 3.5 mph - N/A   Overcast
10:54 AM 50.0 °F - 46.9 °F 89% 29.88 in 10.0 mi North 8.1 mph - 0.00 in   Overcast
11:54 AM 51.1 °F - 48.9 °F 92% 29.87 in 10.0 mi North 6.9 mph 16.1 mph 0.01 in   Overcast
12:54 PM 52.0 °F - 48.0 °F 86% 29.87 in 9.0 mi North 8.1 mph 20.7 mph N/A   Overcast
1:54 PM 51.1 °F - 48.9 °F 92% 29.87 in 6.0 mi North 8.1 mph 21.9 mph 0.02 in Rain Light Rain
2:54 PM 51.1 °F - 48.9 °F 92% 29.88 in 3.0 mi North 6.9 mph - 0.01 in Rain Light Rain
3:09 PM 50.0 °F - 48.2 °F 94% 29.88 in 2.0 mi North 6.9 mph - 0.01 in Rain Light Rain
3:43 PM 50.0 °F - 48.2 °F 94% 29.89 in 1.5 mi North 6.9 mph - 0.03 in Rain Light Rain
4:02 PM 50.0 °F - 48.2 °F 94% 29.90 in 1.8 mi NNE 6.9 mph - 0.00 in Rain Light Rain
4:12 PM 50.0 °F - 48.2 °F 94% 29.90 in 2.5 mi North 5.8 mph - 0.01 in Rain Light Rain
4:24 PM 50.0 °F - 48.2 °F 94% 29.90 in 4.0 mi North 5.8 mph - 0.01 in   Overcast
5:54 PM 48.9 °F - 46.9 °F 93% 29.94 in 10.0 mi North 6.9 mph - 0.02 in Rain Light Rain
6:54 PM 48.0 °F - 46.0 °F 93% 29.95 in 8.0 mi Variable 6.9 mph 16.1 mph 0.01 in   Overcast
7:54 PM 46.9 °F - 46.0 °F 97% 29.96 in 7.0 mi North 6.9 mph - 0.02 in Rain Light Rain
8:54 PM 46.9 °F - 46.0 °F 97% 29.97 in 10.0 mi Variable 5.8 mph - 0.01 in   Overcast
9:54 PM 46.9 °F - 45.0 °F 93% 29.99 in 10.0 mi NNE 5.8 mph - N/A   Overcast
10:22 PM 48.2 °F - 44.6 °F 87% 29.97 in 10.0 mi North 8.1 mph - N/A   Overcast
10:54 PM 48.0 °F - 43.0 °F 83% 29.99 in 10.0 mi Variable 6.9 mph - N/A   Overcast
11:54 PM 46.0 °F 42.5 °F 43.0 °F 89% 30.01 in 7.0 mi NNE 6.9 mph - 0.01 in Rain Light Rain